Regional Weather Roundup
Issued by NWS

Home | Current Version | Previous Version | Graphics & Text | Print | Product List | Glossary On
Versions: 1 2 3 4 5 6 7 8 9 10 11 12 13 14 15 16 17 18 19 20 21 22 23 24 25 26 27 28 29 30 31 32 33 34 35 36 37 38 39 40 41 42 43 44 45 46 47 48 49 50
000
ASUS43 KBIS 281102
RWRND

NORTH DAKOTA REGIONAL WEATHER ROUNDUP
NATIONAL WEATHER SERVICE BISMARCK ND
600 AM CDT THU APR 28 2016

NOTE: "FAIR" INDICATES FEW OR NO CLOUDS BELOW 12,000 FEET WITH NO
SIGNIFICANT WEATHER AND/OR OBSTRUCTIONS TO VISIBILITY.


NDZ001>003-009>011-017-281200-
NORTHWEST NORTH DAKOTA

CITY           SKY/WX    TMP DP  RH WIND       PRES   REMARKS
WILLISTON      PTCLDY    39  23  52 NE9       30.10R
MINOT          CLOUDY    38  23  55 N8        30.09R
MINOT AFB      CLOUDY    37  23  57 N9        30.09R
$$

NDZ018>021-031>035-040>046-281200-
SOUTHWEST NORTH DAKOTA

CITY           SKY/WX    TMP DP  RH WIND       PRES   REMARKS
BISMARCK       LGT RAIN  36  35  96 CALM      30.05R
DICKINSON      CLOUDY    35  29  78 N3        30.01R
GARRISON         N/A     37  25  61 NE8       30.06R
HETTINGER ARPT CLOUDY    34  31  88 N6        30.02R
$$

NDZ004>008-012>016-024-026-027-054-281200-
NORTHEAST NORTH DAKOTA

CITY           SKY/WX    TMP DP  RH WIND       PRES   REMARKS
GRAND FORKS    CLOUDY    40  22  48 E9        30.07R
GRND FRKS AFB  MOCLDY    36  25  65 N5        30.08R
DEVILS LAKE    CLOUDY    38  22  52 NE13      30.08R
$$

NDZ022-023-025-028>030-036>039-047>053-281200-
SOUTHEAST NORTH DAKOTA

CITY           SKY/WX    TMP DP  RH WIND       PRES   REMARKS
FARGO          CLOUDY    44  25  47 NE12      30.00R
JAMESTOWN      CLOUDY    38  33  82 CALM      30.02R
$$





USA.gov is the U.S. government's official web portal to all federal, state and local government web resources and services.